TimePDT,TemperatureF,Dew PointF,Humidity,Sea Level PressureIn,VisibilityMPH,Wind Direction,Wind SpeedMPH,Gust SpeedMPH,PrecipitationIn,Events,Conditions,WindDirDegrees,DateUTC
12:15 AM,30.2,12.2,47,30.27,10.0,Calm,Calm,-,N/A,,Clear,0,2013-10-22 07:15:00
12:35 AM,30.2,12.2,47,30.27,10.0,Calm,Calm,-,N/A,,Clear,0,2013-10-22 07:35:00
12:55 AM,28.4,10.4,47,30.27,10.0,Calm,Calm,-,N/A,,Clear,0,2013-10-22 07:55:00
1:15 AM,28.4,10.4,47,30.27,10.0,Calm,Calm,-,N/A,,Clear,0,2013-10-22 08:15:00
1:35 AM,28.4,12.2,51,30.27,10.0,Calm,Calm,-,N/A,,Clear,0,2013-10-22 08:35:00
1:55 AM,28.4,10.4,47,30.27,10.0,Calm,Calm,-,N/A,,Clear,0,2013-10-22 08:55:00
2:15 AM,28.4,10.4,47,30.27,10.0,Calm,Calm,-,N/A,,Clear,0,2013-10-22 09:15:00
2:35 AM,28.4,12.2,51,30.27,10.0,Calm,Calm,-,N/A,,Clear,0,2013-10-22 09:35:00
2:55 AM,28.4,10.4,47,30.26,10.0,Calm,Calm,-,N/A,,Clear,0,2013-10-22 09:55:00
3:15 AM,28.4,12.2,51,30.26,10.0,Calm,Calm,-,N/A,,Clear,0,2013-10-22 10:15:00
3:35 AM,28.4,10.4,47,30.25,10.0,Calm,Calm,-,N/A,,Clear,0,2013-10-22 10:35:00
3:55 AM,26.6,10.4,51,30.25,10.0,Calm,Calm,-,N/A,,Clear,0,2013-10-22 10:55:00
4:15 AM,26.6,10.4,51,30.25,10.0,Calm,Calm,-,N/A,,Clear,0,2013-10-22 11:15:00
4:35 AM,26.6,10.4,51,30.25,10.0,Calm,Calm,-,N/A,,Clear,0,2013-10-22 11:35:00
4:55 AM,26.6,12.2,55,30.25,10.0,Calm,Calm,-,N/A,,Clear,0,2013-10-22 11:55:00
5:15 AM,26.6,10.4,51,30.25,10.0,Calm,Calm,-,N/A,,Clear,0,2013-10-22 12:15:00
5:35 AM,26.6,12.2,55,30.26,10.0,Calm,Calm,-,N/A,,Clear,0,2013-10-22 12:35:00
5:55 AM,26.6,10.4,51,30.26,10.0,Calm,Calm,-,N/A,,Clear,0,2013-10-22 12:55:00
6:15 AM,26.6,12.2,55,30.26,10.0,Calm,Calm,-,N/A,,Clear,0,2013-10-22 13:15:00
6:35 AM,26.6,10.4,51,30.26,10.0,Calm,Calm,-,N/A,,Clear,0,2013-10-22 13:35:00
6:55 AM,26.6,12.2,55,30.27,10.0,Calm,Calm,-,N/A,,Clear,0,2013-10-22 13:55:00
7:15 AM,26.6,10.4,51,30.27,10.0,Calm,Calm,-,N/A,,Clear,0,2013-10-22 14:15:00
7:35 AM,28.4,12.2,51,30.27,10.0,Calm,Calm,-,N/A,,Clear,0,2013-10-22 14:35:00
7:55 AM,30.2,12.2,47,30.28,10.0,Calm,Calm,-,N/A,,Clear,0,2013-10-22 14:55:00
8:15 AM,32.0,14.0,48,30.28,10.0,Calm,Calm,-,N/A,,Clear,0,2013-10-22 15:15:00
8:35 AM,35.6,15.8,44,30.28,7.0,Calm,Calm,-,N/A,,Clear,0,2013-10-22 15:35:00
8:55 AM,41.0,19.4,42,30.28,10.0,Calm,Calm,-,N/A,,Clear,0,2013-10-22 15:55:00
9:15 AM,44.6,21.2,39,30.28,10.0,Calm,Calm,-,N/A,,Clear,0,2013-10-22 16:15:00
9:35 AM,50.0,21.2,32,30.28,10.0,Calm,Calm,-,N/A,,Clear,0,2013-10-22 16:35:00
9:55 AM,53.6,17.6,24,30.27,10.0,Calm,Calm,-,N/A,,Clear,0,2013-10-22 16:55:00
10:15 AM,59.0,14.0,17,30.27,10.0,ENE,8.1,-,N/A,,Clear,70,2013-10-22 17:15:00
10:35 AM,59.0,14.0,17,30.26,10.0,ENE,10.4,-,N/A,,Clear,60,2013-10-22 17:35:00
10:55 AM,59.0,15.8,19,30.26,10.0,NNE,8.1,-,N/A,,Clear,20,2013-10-22 17:55:00
11:15 AM,59.0,15.8,19,30.27,10.0,NE,9.2,-,N/A,,Clear,50,2013-10-22 18:15:00
11:35 AM,60.8,14.0,16,30.26,10.0,ENE,10.4,18.4,N/A,,Clear,60,2013-10-22 18:35:00
11:55 AM,60.8,14.0,16,30.25,10.0,NE,11.5,-,N/A,,Clear,50,2013-10-22 18:55:00
12:15 PM,60.8,14.0,16,30.25,10.0,ENE,12.7,-,N/A,,Clear,60,2013-10-22 19:15:00
12:35 PM,60.8,15.8,17,30.24,10.0,NNE,9.2,-,N/A,,Clear,30,2013-10-22 19:35:00
12:55 PM,60.8,15.8,17,30.23,10.0,North,9.2,-,N/A,,Clear,10,2013-10-22 19:55:00
1:15 PM,60.8,15.8,17,30.23,10.0,NE,8.1,-,N/A,,Clear,40,2013-10-22 20:15:00
1:35 PM,60.8,15.8,17,30.22,10.0,ENE,11.5,-,N/A,,Clear,60,2013-10-22 20:35:00
1:55 PM,62.6,15.8,16,30.22,10.0,East,11.5,-,N/A,,Clear,80,2013-10-22 20:55:00
2:15 PM,62.6,15.8,16,30.21,10.0,ENE,9.2,17.3,N/A,,Clear,70,2013-10-22 21:15:00
2:35 PM,60.8,15.8,17,30.21,10.0,ENE,11.5,17.3,N/A,,Clear,60,2013-10-22 21:35:00
2:55 PM,60.8,15.8,17,30.21,10.0,East,6.9,16.1,N/A,,Clear,80,2013-10-22 21:55:00
3:15 PM,60.8,15.8,17,30.20,10.0,NE,12.7,16.1,N/A,,Clear,40,2013-10-22 22:15:00
3:35 PM,60.8,15.8,17,30.20,10.0,NE,12.7,16.1,N/A,,Clear,40,2013-10-22 22:35:00
3:55 PM,60.8,15.8,17,30.20,10.0,NE,9.2,-,N/A,,Clear,50,2013-10-22 22:55:00
4:15 PM,60.8,15.8,17,30.20,10.0,NNE,10.4,-,N/A,,Clear,20,2013-10-22 23:15:00
4:35 PM,59.0,15.8,19,30.19,10.0,NE,9.2,-,N/A,,Clear,40,2013-10-22 23:35:00
4:55 PM,59.0,15.8,19,30.19,10.0,NE,10.4,-,N/A,,Clear,50,2013-10-22 23:55:00
5:15 PM,59.0,15.8,19,30.19,10.0,NE,6.9,-,N/A,,Clear,50,2013-10-23 00:15:00
5:35 PM,57.2,15.8,20,30.19,10.0,Calm,Calm,-,N/A,,Clear,0,2013-10-23 00:35:00
5:55 PM,55.4,17.6,23,30.19,10.0,NNE,6.9,-,N/A,,Clear,30,2013-10-23 00:55:00
6:15 PM,55.4,15.8,21,30.19,10.0,East,3.5,-,N/A,,Clear,80,2013-10-23 01:15:00
6:35 PM,50.0,17.6,28,30.19,10.0,Calm,Calm,-,N/A,,Clear,0,2013-10-23 01:35:00
6:55 PM,46.4,17.6,32,30.20,10.0,Calm,Calm,-,N/A,,Clear,0,2013-10-23 01:55:00
7:35 PM,42.8,15.8,34,30.20,10.0,Calm,Calm,-,N/A,,Clear,0,2013-10-23 02:35:00
8:15 PM,39.2,17.6,42,30.22,10.0,Calm,Calm,-,N/A,,Clear,0,2013-10-23 03:15:00
8:35 PM,39.2,19.4,45,30.22,10.0,Calm,Calm,-,N/A,,Clear,0,2013-10-23 03:35:00
8:55 PM,37.4,19.4,48,30.22,10.0,Calm,Calm,-,N/A,,Clear,0,2013-10-23 03:55:00
9:15 PM,37.4,19.4,48,30.22,10.0,Calm,Calm,-,N/A,,Clear,0,2013-10-23 04:15:00
9:35 PM,37.4,19.4,48,30.22,10.0,Calm,Calm,-,N/A,,Clear,0,2013-10-23 04:35:00
9:55 PM,35.6,19.4,52,30.22,10.0,Calm,Calm,-,N/A,,Clear,0,2013-10-23 04:55:00
10:15 PM,35.6,19.4,52,30.22,10.0,Calm,Calm,-,N/A,,Clear,0,2013-10-23 05:15:00
10:35 PM,35.6,19.4,52,30.22,10.0,Calm,Calm,-,N/A,,Clear,0,2013-10-23 05:35:00
10:55 PM,33.8,19.4,56,30.22,10.0,Calm,Calm,-,N/A,,Clear,0,2013-10-23 05:55:00
11:15 PM,33.8,19.4,56,30.21,10.0,Calm,Calm,-,N/A,,Clear,0,2013-10-23 06:15:00
11:35 PM,33.8,19.4,56,30.20,10.0,Calm,Calm,-,N/A,,Clear,0,2013-10-23 06:35:00
11:55 PM,33.8,19.4,56,30.20,10.0,Calm,Calm,-,N/A,,Clear,0,2013-10-23 06:55:00